Content
SEND FEEDBACK

Daily
Averages
Monthly
Summary
Turkmenistan

ASHGABAT, TURKMENISTAN


Home > Asia > Turkmenistan
Elevation: 775 feet     Latitude: 37 58N     Longitude: 058 20E

WEATHER
 
SELECT A DAY
Number of Records: 177,354;   Date Range: 3/15/97 - 8/12/14
 
SHARE

PRINT THIS DATA

[ ← Previous Day ]
WEATHER ALMANAC - FEBRUARY 12, 2014
[ Next Day → ]
[ °C ]   °F
Weather ElementAverageHighLow
Temperature38.8 °F48.2 °F (4:00 pm)30.2 °F (8:00 am)
Dewpoint27.4 °F30.2 °F (12:00 pm)24 °F (5:00 pm)
Humidity62.9 %87 % (9:00 am)27 % (5:00 pm)
Barometer30.33 in30.42 in (11:00 pm)30.24 in (1:00 am)
Wind Speed5.3 mph8.9 mph (2:00 pm)
Weather ElementAverage
Visibility5.8 mi
Wind DirectionWNW (282.3 °)

Weather ElementTotal
Precipitation---
Heating Degree Days25.8 (Base 65)
Averaged from 31 records on February 12, 2014
WEATHER CONDITIONS BREAKOUT
WIND DIRECTION BREAKOUT
WEATHER BY HOUR - FEBRUARY 12, 2014
[ °C ]   °F
Local TimeTemperatureDewpointHumidityBarometerVisibilityWind DirectionWind SpeedGust SpeedPrecipitationEventsConditions
1:00 AM39.2 °F28.4 °F65 %30.24 in6.2 miWSW (250°)6.7 mphOvercast
2:00 AM37.0 °F29.0 °F64 %30.29 in6.0 miWNW (290°)4.5 mphScattered Clouds
2:00 AM35.6 °F28.4 °F75 %30.24 in5.6 miWNW (290°)4.5 mphOvercast
3:00 AM33.8 °F28.4 °F81 %30.24 in6.2 miWest (280°)6.7 mphOvercast
4:00 AM33.8 °F28.4 °F81 %30.24 in6.2 miWest (270°)6.7 mphMostly Cloudy
5:00 AM34.0 °F29.0 °F73 %30.30 in6.0 miWNW (290°)6.7 mphMostly Cloudy
5:00 AM33.8 °F28.4 °F81 %30.27 in6.2 miWNW (290°)6.7 mphMostly Cloudy
6:00 AM33.8 °F28.4 °F81 %30.27 in6.2 miWest (280°)4.5 mphMostly Cloudy
7:00 AM32.0 °F26.6 °F80 %30.30 in5.6 miWNW (300°)2.2 mphMostly Cloudy
8:00 AM32.0 °F27.0 °F76 %30.37 in2.0 miNW (310°)4.5 mphMostly Cloudy
8:00 AM30.2 °F26.6 °F86 %30.30 in5.6 miWNW (300°)4.5 mphMostly Cloudy
9:00 AM32.0 °F28.4 °F87 %30.33 in5.6 miWNW (290°)2.2 mphMostly Cloudy
10:00 AM37.4 °F28.4 °F70 %30.33 in6.2 miWNW (290°)4.5 mphMostly Cloudy
11:00 AM38.0 °F28.0 °F56 %30.39 in6.0 miNNW (330°)4.5 mphOvercast
11:00 AM39.2 °F28.4 °F65 %30.36 in6.2 miNW (310°)6.7 mphOvercast
12:00 PM41.0 °F30.2 °F65 %30.36 in6.2 miNW (310°)4.5 mphMostly Cloudy
1:00 PM42.8 °F30.2 °F61 %30.36 in6.2 miWNW (300°)4.5 mphMostly Cloudy
2:00 PM45.0 °F28.0 °F38 %30.38 in6.0 miNNW (330°)8.9 mphPartly Cloudy
2:00 PM46.4 °F26.6 °F46 %30.33 in6.2 miNNW (340°)6.7 mphMostly Cloudy
3:00 PM46.4 °F24.8 °F43 %30.33 in6.2 miNorth (360°)8.9 mphScattered Clouds
4:00 PM48.2 °F24.8 °F40 %30.33 in6.2 miNNW (340°)6.7 mphPartly Cloudy
5:00 PM47.0 °F24.0 °F27 %30.37 in6.0 miNorth6.7 mphScattered Clouds
5:00 PM48.2 °F24.8 °F40 %30.33 in6.2 miNorth (360°)6.7 mphPartly Cloudy
6:00 PM46.4 °F24.8 °F43 %30.36 in6.2 miNW (320°)4.5 mphScattered Clouds
7:00 PM42.8 °F24.8 °F49 %30.36 in6.2 miNNW (330°)4.5 mphScattered Clouds
8:00 PM40.0 °F27.0 °F48 %30.40 in6.0 miWNW (300°)6.7 mphClear
8:00 PM37.4 °F26.6 °F65 %30.36 in6.2 miWNW (300°)6.7 mphPartly Cloudy
9:00 PM39.2 °F28.4 °F65 %30.36 in5.0 miWSW (250°)4.5 mphPartly Cloudy
10:00 PM37.4 °F28.4 °F70 %30.39 in4.3 miWest (270°)4.5 mphClear
11:00 PM36.0 °F28.0 °F63 %30.42 in6.0 miWest (270°)2.2 mph
11:00 PM37.4 °F26.6 °F65 %30.39 in5.0 miVariable2.2 mphClear
Hourly data recorded from UTAA, located miles away from Ashgabat, Turkmenistan







STORIES FROM OUR PARTNERS